CZ-6A DEB, 64649

Orbit data source: Space-Track

CZ-6A DEB, 64649 is space debris in LEO originally from a launch on Tue, 06 Aug 2024 UTC launched from the Taiyaun Space Center, China (TSC). Debris objects in space refer to the collection of defunct objects orbiting the Earth. Examples of debris include non-operational satellites, rocket bodies, and fragments generated from explosions, collisions, or faulty payload assembly.

Loading next visibility...
Identifier
64649, 2024-140AEP
Orbit
LEO
Country
Flag of CNCN / PRC
Related business
Manufacturer
SAST
Mission
Spacecraft
Bus & Motor
Unknown
Mass
Unknown
Launch date (UTC)
2024-08-06 (2 years ago)
Launch vehicle
Unknown
Launch site
Taiyaun Space Center, China (TSC)
Object type
Payload
Rocket body
Debris
Shape & HBR
Unknown shape, 0.1 m
Radar Cross Section
Medium (>0.1 m² and <1 m²)

Expand to show TLE details & history
Last TLE update: 10 hours ago

TLE from 10 hours ago
0 CZ-6A DEB
1 64649U 24140AEP 26171.41748786  .00003092  00000-0  73612-3 0  9998
2 64649  88.9198 263.9857 0052577 287.4602  72.0863 14.52770093 89741
Epoch: 2026-06-20T10:01Z
TLE epoch observation values (Epoch: 2026-06-20T10:01:10.951Z)
Latitude
Longitude
-154.94234°
Altitude
708.417 km
Speed
7.507 km/s
True Right ascension
17h 35m 56s
True Declination
0° 00' 00"
Sunlit
Object was in full shadow at epoch
Visualization orbit readout
Latitude
Unknown
Longitude
Unknown
Altitude
Unknown
Speed
Unknown
Apparent Right ascension
Unknown
Apparent Declination
Unknown
Sunlit
N/A
Visualization observer readout
Local Sidereal Time
07:20:28
Azimuth
Unknown
Elevation
Unknown
Doppler factor
Unknown
Orbital elements
Apogee altitude
750.806 km
Perigee altitude
676.234 km
Semi-major axis
7,091.657 km
Eccentricity
0.00526
Inclination
88.9198°
RAAN
263.9857°
Arg. of periapsis
287.4602°
True anomaly
72.66073°
Mean anomaly
72.0863°
Eccentric anomaly
72.3734°
Mean motion
3.63431 °/min
Orbital period
99.06 mins
BSTAR
0.00073612
Loading maneuver chart data...
Computing Atmospheric mass density...
Loading historical data...
Loading historical data...
Loading historical data...
Loading historical data...
Loading historical data...
Loading historical data...
Loading historical data...

Documentation

Showing up to 5 results
|